Regional Weather Roundup
Issued by NWS New Orleans/Baton Rouge, LA

Home | Current Version | Previous Version | Graphics & Text | Print | Product List | Glossary On
Versions: 1 2 3 4 5 6 7 8 9 10 11 12 13 14 15 16 17 18 19 20 21 22 23 24 25 26 27 28 29 30 31 32 33 34 35 36 37 38 39 40 41 42 43 44 45 46 47 48 49 50
051
ASUS44 KLIX 181610
RWRLIX
NEW ORLEANS REGIONAL WEATHER ROUNDUP
NATIONAL WEATHER SERVICE NEW ORLEANS LA
1100 AM CDT FRI APR 18 2014

NOTE: "FAIR" INDICATES FEW OR NO CLOUDS BELOW 12,000 FEET WITH NO
      SIGNIFICANT WEATHER AND/OR OBSTRUCTIONS TO VISIBILITY.
      SKY/WX - SKY CONDITION AND SIGNIFICANT WEATHER.
      TMP - AIR TEMPERATURE.     DP    - DEWPOINT TEMPERATURE.
      RH  - RELATIVE HUMIDITY.   PRES  - PRESSURE.
      HI  - HEAT INDEX.          WCI   - WIND CHILL INDEX.

*  THESE STATIONS ARE NOT NWS OR FAA STATIONS AND ARE NOT UNDER
   NWS QUALITY CONTROL.

LAZ038-040-048-061>063-065>067-069-181700-
SOUTHEAST LOUISIANA

CITY           SKY/WX    TMP DP  RH WIND       PRES   REMARKS
N.O. AUDUBON     N/A     68 N/A N/A MISG        N/A
N.O. INTL ARPT PTSUNNY   68  61  78 N12       30.11S
N.O. LAKEFRONT CLOUDY    68  62  81 N12       30.11S
N.O. DOWNTOWN* CLOUDY    66  57  72 N10       30.11S
SLIDELL        CLOUDY    67  60  78 N13       30.10S
BATON ROUGE    MOSUNNY   73  59  61 NE12      30.13S
BOOTHVILLE     CLOUDY    63  60  90 N12G22    30.06F
BELLE CHASSE   CLOUDY    67  59  75 N8G16     30.09R
BOGALUSA*        N/A     66  58  75 NE12      30.14S
GALLIANO*      CLOUDY    68  62  79 N14       30.09F
NEW ROADS*       N/A     70  59  69 N7        30.14F
GONZALES*        N/A     71  60  68 N9        30.11F
HAMMOND*       MOSUNNY   75  57  53 N10       30.13S
HOUMA*         PTSUNNY   68  57  68 N14       30.11R
PORT FOURCHON* CLOUDY    66  61  82 N16G22    30.10S

$$

MSZ070-080>082-181700-
SOUTHERN MISSISSIPPI

CITY           SKY/WX    TMP DP  RH WIND       PRES   REMARKS
MCCOMB         CLOUDY    67  57  70 N10       30.15R
GULFPORT       CLOUDY    66  59  78 N13       30.06F
BILOXI         PTSUNNY   67  62  84 NE14      30.06F
PASCAGOULA     CLOUDY    62  59  90 N16G23    30.07F
STENNIS ARPT*  CLOUDY    63  54  72 N12G21    30.09S

$$

COASTAL OBSERVATIONS
LAKE AND NEARSHORE STATIONS

STATION/POSITION TIME  TEMP    WIND        PRES    WAVE
                       AIR SEA DIR/SP/G            HT/PER
                 (UTC) (F)     (DEG/KT/KT) (MB)    (FT/S)
PASCAGOULA       1600   62      20/ 15/ 20 1017.4
WAVELAND YACHT   1600   63 66   30/ 13/ 19 1017.8
GRAND ISLE       1600   65 66   30/ 14/ 20 1018.9
SOUTHWEST PASS   1600   64 58  360/ 19/ 22 1018.1
NEW CANAL        1600   64 63  360/  9/ 10 1019.8
SHELL BEACH      1600   62 61   10/ 16/ 18 1018.6

OFFSHORE STATIONS

STATION/POSITION TIME  TEMP    WIND        PRES    WAVE
                       AIR SEA DIR/SP/G            HT/PER
                 (UTC) (F)     (DEG/KT/KT) (MB)    (FT/S)
64 S DAUPHIN ISL 1454   65 71   10/ 25/ 31 1015.5

$$




USA.gov is the U.S. government's official web portal to all federal, state and local government web resources and services.